User: anonymous   Login
Location: Auckland
(36.8670°S, 174.7670°E)
Time: 05:39:30
(UTC+13:00)
Language:

Cosmos 1707 Rocket - Orbit

View from above orbital plane
View from above orbital plane
View from above satellite
View from above satellite

Ground track
Ground track

The orbit data is extracted from the following two-line orbital elements,

1 16327U 85113B   19077.47048352 +.00000071 +00000-0 +56728-5 0  9995
2 16327 082.5355 214.7251 0020026 043.7504 020.1727 14.83429031775502
Epoch (UTC): 18 March 2019 11:17:29
Eccentricity: 0.0020026
inclination: 82.5355°
perigee height: 604 km
apogee height: 632 km
right ascension of ascending node: 214.7251°
argument of perigee: 43.7504°
revolutions per day: 14.83429031
mean anomaly at epoch: 20.1727°
orbit number at epoch: 77550

The dashed part of the orbit path shows where the satellite is in the earth's shadow,  

DLR